Location: Newark
(23.1300°N, 73.6109°E)
Time: 17:18:51
(UTC+00:00)

AO-7 - Pass Details

Date: 09 July 2020
Orbit: 1440 x 1458 km, 101.8° (Epoch: 05 August)

Event Time Altitude Azimuth Distance (km) Brightness Sun altitude
Rises 22:01:13 0° 26° (NNE) 4,562 ? -28.6°
Reaches altitude 10° 22:04:13 10° 34° (NNE) 3,582 ? -28.1°
Maximum altitude 22:12:01 43° 103° (ESE) 1,961 ? -26.8°
Enters shadow 22:19:01 13° 169° (SSE) 3,335 ? -25.6°
